Theta_e
340 349 353 355 353 352 352 352 353 353 353 352 351 350 348 346 345 344 344 342 341 341 342 343 343 344 345 345 345 344 344 345 346 345 345 344 345 345 346 347 347 347 350
344 351 351 354 355 354 354 354 353 353 353 352 351 349 347 346 344 344 343 341 340 340 340 339 339 341 342 343 344 343 343 344 344 344 341 342 343 342 342 343 345 345 348
347 349 351 352 354 354 353 353 353 352 352 351 350 349 346 346 344 343 342 340 339 339 338 335 335 337 340 341 342 343 343 344 343 342 339 334 336 340 340 338 341 342 345
348 350 351 348 352 353 352 352 352 352 351 350 349 348 346 345 344 343 341 339 337 337 336 334 332 333 336 339 340 341 342 340 340 339 336 335 335 339 339 337 338 339 339
345 349 349 347 351 351 351 350 351 351 350 349 348 347 347 345 342 341 339 337 335 335 334 331 330 330 334 335 336 337 337 335 336 335 332 333 333 335 337 336 335 336 336
342 348 345 348 350 351 350 350 349 349 349 348 348 347 347 344 342 340 338 336 334 334 332 328 326 327 328 331 332 333 331 330 330 325 325 328 328 336 336 335 334 334 336
343 347 347 347 347 348 349 348 348 348 348 348 347 347 346 343 340 339 337 336 335 333 331 327 324 323 324 324 325 326 325 327 319 320 320 321 325 332 332 332 332 332 332
341 345 346 339 342 345 346 347 347 347 347 347 346 345 345 343 341 338 337 337 335 334 332 328 322 320 319 319 319 320 322 322 314 315 316 317 329 329 329 328 329 330 331
321 331 340 343 339 337 341 342 343 344 345 345 345 345 343 342 340 340 338 336 335 333 332 329 322 317 315 315 316 319 320 318 307 309 313 315 328 328 328 327 327 328 330
310 313 315 330 341 342 340 335 337 339 340 341 340 338 335 335 335 335 333 336 335 333 331 328 322 318 315 315 317 318 315 312 303 304 307 313 322 325 328 326 326 328 329
308 308 309 311 325 336 341 337 336 335 335 335 334 331 328 332 332 332 330 334 336 334 331 328 325 320 314 314 318 315 309 299 300 301 305 318 320 323 324 327 327 325 327
302 306 309 309 310 322 334 340 341 338 338 336 335 332 333 332 330 330 326 328 330 330 330 328 326 322 314 306 303 306 299 299 299 300 304 314 316 319 323 324 326 328 326
303 307 310 311 311 310 330 334 338 337 336 333 333 334 333 330 328 327 326 325 323 321 322 321 319 315 310 307 305 302 301 299 298 299 306 312 313 316 318 320 323 327 329
304 307 309 311 313 310 314 333 331 330 329 329 330 332 332 331 329 327 326 326 321 320 318 316 315 316 312 310 308 306 304 302 300 299 301 310 312 314 316 317 320 322 328
305 306 308 311 313 314 313 330 328 326 325 326 326 329 330 330 329 328 326 324 321 320 319 316 312 312 313 313 310 309 307 306 304 302 300 307 311 312 314 317 319 320 321
304 304 308 315 315 319 324 323 320 320 320 321 322 324 323 324 322 320 319 317 317 316 315 312 309 311 310 310 313 310 309 308 307 305 302 302 313 312 314 315 316 317 317
302 304 311 311 315 315 316 316 316 316 316 315 315 316 318 318 316 315 313 312 312 313 311 310 311 310 309 309 307 308 307 307 306 307 305 303 302 308 311 312 313 314 316
302 305 309 310 308 310 311 311 311 311 312 312 311 312 312 313 313 311 309 307 308 307 307 305 306 304 301 300 299 300 302 305 305 304 300 299 299 300 303 309 310 311 313
301 305 305 306 305 305 305 306 306 305 304 305 305 304 306 307 307 305 304 303 302 300 300 302 300 298 296 295 297 299 300 301 302 300 298 299 300 300 299 304 305 305 305
301 304 305 304 304 304 303 301 300 298 298 298 297 297 299 300 300 300 297 296 296 294 294 296 296 295 293 293 298 298 299 296 297 297 297 297 296 297 293 297 298 295 302
300 303 304 303 303 303 301 298 296 293 293 292 292 292 293 294 294 293 292 291 290 289 288 290 294 290 289 290 293 295 296 294 297 294 293 290 290 293 289 293 293 290 292
299 303 304 305 304 304 301 297 294 291 290 289 290 290 290 290 291 290 289 289 288 288 287 286 287 287 286 287 289 291 289 293 291 293 289 288 285 288 287 290 288 288 289
300 303 304 305 300 297 295 293 291 290 288 287 287 287 288 289 289 289 288 287 287 287 285 285 285 285 283 285 285 288 283 282 286 291 287 284 285 284 285 287 286 287 289
299 300 300 299 296 295 295 292 290 288 285 284 285 286 287 287 287 287 287 286 286 286 284 284 285 283 283 281 283 285 283 283 279 280 282 283 283 283 283 284 284 286 288
296 296 296 297 296 295 294 290 288 286 286 286 285 285 285 285 285 285 285 284 284 284 283 283 282 282 282 281 281 281 281 281 280 277 276 277 281 282 282 282 283 284 286
292 292 292 292 289 289 289 288 287 286 285 285 284 283 283 283 283 283 283 283 283 283 282 282 281 281 281 281 280 281 280 279 277 276 275 276 276 278 282 282 282 283 284
Wind_Speed
2 7 11 13 13 13 13 13 13 12 13 14 16 16 16 17 17 18 18 17 17 16 17 16 15 15 15 15 14 13 14 14 15 19 18 18 18 19 19 18 14 12 16
10 10 12 12 12 12 12 11 11 12 12 14 15 16 16 17 17 17 17 17 16 16 16 15 15 15 15 15 14 12 12 11 8 6 12 16 17 18 18 18 15 14 17
12 11 10 11 12 11 11 10 9 10 13 13 13 15 16 16 16 17 17 16 16 16 15 15 15 15 15 15 15 14 15 16 16 10 9 6 10 18 18 17 16 16 17
13 11 9 11 13 12 12 10 9 9 11 13 13 14 15 15 16 16 16 15 15 15 15 15 16 15 14 15 14 15 16 17 15 13 7 8 9 17 17 17 17 17 14
12 11 10 11 12 13 12 10 9 10 11 12 13 13 15 15 15 16 15 15 16 16 16 16 15 15 15 14 14 15 16 17 15 13 10 9 6 13 16 15 14 15 14
8 12 13 12 11 13 13 12 11 12 11 12 12 12 14 15 15 15 15 16 16 16 15 15 15 15 14 14 14 14 16 16 12 10 9 11 7 14 15 14 14 13 13
7 10 10 10 9 10 10 10 9 11 12 11 11 13 15 15 15 15 15 16 16 16 15 15 15 15 14 14 13 14 16 14 9 9 8 8 7 13 14 13 13 13 13
7 8 8 10 9 8 9 9 9 10 14 12 12 13 14 14 14 15 15 16 16 15 14 14 14 14 14 14 14 14 14 12 9 8 7 6 11 12 13 13 12 12 12
11 9 6 6 8 7 5 5 7 10 12 13 12 13 13 12 13 14 14 15 15 14 13 13 13 13 13 14 14 13 13 14 7 6 6 4 12 13 12 13 12 11 11
7 7 7 5 5 5 4 3 6 7 8 10 11 11 12 12 11 11 11 12 16 14 13 13 12 11 12 13 13 12 13 12 7 6 4 5 12 13 13 12 12 12 11
6 7 6 6 4 4 3 4 6 7 8 9 9 13 11 6 8 7 7 9 7 14 14 12 11 8 8 9 10 10 10 4 5 4 3 11 13 13 12 12 12 11 10
4 5 6 6 5 4 1 2 2 5 4 4 6 7 4 5 5 5 6 8 8 12 12 10 9 9 7 4 4 7 4 5 4 3 3 10 11 12 13 13 12 11 9
4 4 6 5 3 2 3 1 1 3 4 4 5 7 5 5 5 4 3 3 3 5 4 5 5 4 5 4 4 4 4 4 3 2 3 8 10 11 12 12 12 12 10
6 5 6 6 4 3 1 2 4 6 4 5 5 7 6 5 5 4 3 4 3 1 5 4 3 3 4 4 4 4 4 4 3 3 4 8 11 13 14 14 14 15 14
6 4 5 6 5 3 1 6 6 7 6 7 6 7 6 5 5 4 4 3 3 4 5 4 4 4 4 5 5 5 6 6 6 3 3 9 10 14 16 17 17 17 16
4 2 4 6 3 4 7 9 6 6 7 6 6 6 8 5 6 6 5 5 6 5 4 4 4 4 4 4 5 6 6 5 6 5 4 5 14 15 16 17 19 19 18
2 1 4 5 5 9 8 9 7 6 7 7 6 9 9 8 9 8 5 5 5 4 6 4 4 5 5 4 6 4 4 6 5 6 5 5 7 14 19 21 21 21 20
4 4 5 5 7 8 9 8 7 7 7 8 6 7 9 8 8 7 7 7 5 4 4 5 4 5 4 4 4 4 4 5 6 7 7 7 6 7 11 22 22 23 23
6 6 7 7 8 9 9 9 9 10 8 7 7 6 7 9 9 8 6 6 5 5 5 4 5 4 4 4 4 4 4 5 6 7 9 9 10 8 7 15 18 21 25
6 7 8 7 9 10 8 8 8 8 8 7 7 7 9 8 10 9 8 8 6 6 6 5 6 5 3 3 4 6 5 5 5 7 8 9 10 10 11 10 8 11 22
6 8 10 11 9 8 8 7 6 6 7 8 7 10 10 9 9 9 7 7 7 8 5 5 3 7 9 6 4 4 4 7 8 7 5 8 11 9 12 9 7 7 8
8 8 10 10 11 6 6 6 5 6 6 7 7 9 8 9 8 9 8 7 6 7 9 7 6 3 5 8 4 2 4 4 5 5 6 7 7 5 10 10 11 11 7
8 10 9 8 9 9 12 11 10 9 6 6 6 7 7 9 9 9 8 7 7 7 7 6 5 6 4 5 9 4 4 2 4 3 4 6 11 5 6 7 10 10 9
8 6 9 10 11 11 14 12 12 8 10 2 4 5 7 8 9 9 9 8 7 6 7 6 6 5 4 4 3 5 5 3 2 5 4 4 7 6 7 8 6 8 9
8 7 8 9 9 12 12 9 10 11 9 7 6 10 9 8 8 8 7 7 8 6 6 7 7 7 5 4 4 3 4 4 3 2 3 5 5 5 4 5 5 5 8
5 7 7 9 6 8 11 11 13 16 13 10 8 8 7 6 5 6 7 8 7 6 6 5 6 8 6 5 4 5 3 3 2 2 2 3 2 4 7 4 5 6 5
Wind_Direction
166 135 133 126 119 112 108 103 101 102 106 105 100 95 90 84 75 71 68 64 60 59 57 54 54 56 54 57 49 45 50 56 68 70 66 62 55 52 48 40 38 48 54
145 142 134 130 122 117 113 110 110 110 110 104 101 96 90 87 84 78 72 66 63 59 56 54 52 50 50 52 45 36 39 42 44 39 62 61 55 53 49 42 42 39 45
136 137 133 131 126 118 112 106 108 114 112 107 105 103 96 91 85 76 72 65 59 59 54 53 52 51 48 47 42 33 27 17 10 78 99 68 59 48 45 44 41 40 35
136 139 139 142 139 134 128 125 120 116 117 116 113 110 103 97 87 81 74 69 64 60 56 54 53 50 49 47 40 31 26 13 13 50 69 60 53 47 43 43 41 37 37
140 143 146 152 156 148 137 125 113 107 113 118 119 117 114 102 94 87 78 71 66 62 57 55 53 53 53 46 40 32 28 21 33 67 54 48 29 44 43 42 44 38 36
148 148 154 159 165 153 143 143 143 133 126 125 125 120 120 112 105 95 88 79 72 66 60 57 56 55 54 50 42 35 29 26 51 59 51 40 31 39 41 39 41 41 39
116 131 145 153 159 146 140 146 148 146 132 126 123 124 125 119 110 102 94 86 77 68 62 57 56 55 54 52 46 40 35 30 56 60 45 32 26 40 40 38 38 38 36
99 116 120 103 108 131 149 157 162 162 137 131 139 134 130 125 117 109 102 97 86 77 67 60 58 55 52 48 46 41 33 39 57 62 43 27 20 40 40 36 35 36 38
48 55 61 135 136 137 140 152 163 167 145 141 143 142 132 122 120 116 114 108 102 93 80 72 68 62 56 49 45 39 39 51 64 53 45 20 20 32 37 35 35 35 39
54 59 44 44 118 110 157 147 154 138 145 147 144 129 125 124 119 123 130 132 123 109 91 78 79 71 62 53 46 43 38 44 59 53 38 23 27 29 29 32 29 29 34
36 38 45 35 24 72 84 146 159 136 158 156 143 138 136 136 139 143 143 138 128 111 102 85 75 80 67 43 55 52 49 43 59 52 32 30 27 27 27 23 24 26 28
61 35 30 24 22 342 192 135 105 143 148 142 133 145 136 139 122 106 94 80 84 94 92 82 71 62 65 55 34 38 43 56 64 73 46 38 27 23 22 21 18 16 22
86 52 29 11 344 332 264 164 120 92 92 85 115 153 133 116 111 101 99 83 87 75 70 66 68 64 66 61 46 39 41 41 43 56 42 44 29 20 18 16 15 9 7
62 37 6 355 344 273 241 173 87 88 77 67 57 84 122 112 115 112 104 106 91 126 102 84 63 59 64 73 76 54 39 34 25 24 2 21 25 19 15 12 8 5 357
73 25 346 334 314 289 219 91 85 86 79 74 60 63 94 115 113 107 78 71 68 47 56 53 46 41 37 32 25 36 25 16 21 23 10 5 16 21 20 15 12 5 1
95 49 316 16 37 90 83 93 92 87 86 78 64 63 63 73 81 77 72 59 58 55 64 63 50 30 32 16 34 26 19 22 14 17 23 14 28 32 21 21 11 6 0
126 137 75 73 55 79 90 89 88 89 85 80 71 66 70 78 85 87 84 74 63 53 61 52 53 49 37 15 35 17 17 16 19 19 39 44 32 29 31 28 22 16 11
133 115 84 86 80 86 92 94 96 92 89 85 81 78 73 79 88 91 85 72 65 64 69 66 57 47 27 23 1 6 16 26 32 48 59 55 43 34 27 32 25 21 14
152 129 109 101 99 98 93 93 87 84 78 78 77 71 71 77 75 80 74 64 52 50 45 56 48 56 22 2 1 20 32 42 53 66 61 51 45 37 31 19 21 23 9
147 127 119 120 119 113 104 97 87 79 71 69 65 61 63 65 63 73 68 55 47 54 44 46 62 35 27 351 25 40 67 52 61 57 56 49 35 34 23 15 14 7 8
156 139 139 137 134 128 127 116 92 87 84 73 66 63 68 72 71 78 79 72 61 65 56 45 57 48 24 2 58 25 52 57 65 60 56 51 34 30 16 17 13 1 351
158 151 150 148 144 140 120 108 106 110 86 87 82 71 66 68 73 78 79 73 61 71 55 45 33 56 45 19 66 52 17 339 30 59 53 46 29 25 13 7 359 354 349
156 157 157 154 130 114 112 110 108 102 91 88 72 79 64 77 77 81 78 77 66 68 67 51 40 52 83 21 40 104 57 2 329 344 38 46 21 14 354 356 353 350 346
159 143 132 131 131 131 135 134 136 133 127 112 116 101 87 76 82 82 83 82 80 75 71 63 44 46 59 44 16 36 57 108 80 327 345 20 2 8 352 345 342 344 348
148 139 129 132 138 142 139 127 123 116 115 122 111 107 97 82 77 82 84 84 80 78 73 76 63 60 53 68 42 20 26 48 61 103 280 328 342 336 340 330 327 339 355
143 139 140 135 131 132 130 131 134 136 138 134 130 120 110 96 90 80 85 82 79 86 82 75 71 65 67 71 65 52 56 49 26 27 328 305 287 283 311 323 338 345 354